Total_Precipitation_Accumulation
0.01 0.01 0.06 0.06 0.06 0.05 0.05 0.06 0.07 0.09 0.10 0.11 0.11 0.10 0.08 0.07 0.07 0.08 0.10 0.10 0.11 0.14 0.19 0.22 0.24 0.25 0.25 0.27 0.34 0.40 0.41 0.40 0.35 0.27 0.24 0.23 0.23 0.22 0.31 0.37 0.46 0.61 0.38
0.00 0.00 0.05 0.05 0.05 0.04 0.04 0.05 0.05 0.06 0.08 0.08 0.08 0.07 0.06 0.05 0.05 0.07 0.08 0.07 0.07 0.10 0.15 0.20 0.25 0.27 0.29 0.31 0.40 0.47 0.47 0.43 0.43 0.40 0.39 0.38 0.33 0.30 0.28 0.32 0.48 0.55 0.38
0.00 0.00 0.03 0.05 0.05 0.05 0.04 0.03 0.05 0.07 0.06 0.05 0.08 0.06 0.07 0.05 0.04 0.05 0.05 0.06 0.06 0.07 0.10 0.16 0.26 0.31 0.31 0.40 0.48 0.49 0.50 0.49 0.47 0.44 0.60 0.72 0.43 0.36 0.38 0.38 0.34 0.33 0.34
0.00 0.00 0.01 0.03 0.07 0.09 0.06 0.05 0.07 0.08 0.06 0.06 0.08 0.07 0.07 0.05 0.04 0.04 0.04 0.04 0.05 0.06 0.07 0.12 0.23 0.31 0.34 0.36 0.41 0.42 0.42 0.46 0.49 0.42 0.59 0.78 0.60 0.39 0.46 0.49 0.37 0.31 0.31
0.01 0.01 0.04 0.07 0.14 0.17 0.11 0.11 0.14 0.11 0.09 0.08 0.07 0.07 0.09 0.06 0.07 0.04 0.02 0.04 0.04 0.06 0.07 0.09 0.16 0.26 0.32 0.34 0.36 0.35 0.37 0.49 0.42 0.38 0.49 0.59 0.56 0.45 0.46 0.54 0.43 0.34 0.34
0.03 0.05 0.09 0.13 0.20 0.23 0.13 0.15 0.22 0.16 0.13 0.09 0.05 0.06 0.08 0.06 0.06 0.02 0.02 0.05 0.04 0.04 0.06 0.07 0.13 0.20 0.26 0.32 0.34 0.40 0.46 0.43 0.36 0.43 0.46 0.57 0.53 0.45 0.40 0.40 0.42 0.40 0.39
0.05 0.06 0.10 0.18 0.20 0.21 0.18 0.23 0.32 0.25 0.19 0.10 0.06 0.06 0.06 0.05 0.05 0.03 0.04 0.03 0.03 0.03 0.03 0.04 0.07 0.11 0.16 0.22 0.28 0.34 0.35 0.33 0.50 0.47 0.42 0.54 0.46 0.39 0.32 0.33 0.43 0.41 0.40
0.10 0.09 0.14 0.19 0.18 0.20 0.22 0.28 0.36 0.36 0.25 0.12 0.06 0.07 0.05 0.05 0.04 0.04 0.05 0.04 0.03 0.01 0.01 0.02 0.04 0.06 0.07 0.10 0.15 0.21 0.26 0.29 0.42 0.36 0.34 0.42 0.35 0.32 0.27 0.28 0.34 0.38 0.44
0.26 0.22 0.25 0.24 0.23 0.26 0.32 0.31 0.43 0.53 0.36 0.18 0.11 0.10 0.08 0.05 0.04 0.04 0.03 0.02 0.01 0.01 0.00 0.01 0.02 0.03 0.04 0.05 0.09 0.15 0.21 0.22 0.24 0.25 0.23 0.29 0.28 0.26 0.30 0.29 0.30 0.39 0.42
0.28 0.28 0.29 0.32 0.34 0.39 0.43 0.51 0.57 0.81 0.69 0.33 0.20 0.14 0.11 0.06 0.05 0.04 0.02 0.01 0.01 0.01 0.00 0.00 0.00 0.01 0.02 0.04 0.08 0.14 0.15 0.14 0.18 0.14 0.11 0.14 0.21 0.15 0.16 0.20 0.22 0.26 0.32
0.21 0.24 0.29 0.34 0.36 0.38 0.42 0.57 0.72 0.89 0.91 0.58 0.36 0.22 0.13 0.10 0.16 0.13 0.05 0.02 0.01 0.00 0.00 0.00 0.01 0.01 0.02 0.03 0.06 0.07 0.06 0.09 0.18 0.13 0.09 0.10 0.09 0.05 0.04 0.05 0.07 0.09 0.15
0.34 0.30 0.31 0.33 0.35 0.35 0.34 0.52 0.68 0.70 0.83 0.59 0.60 0.49 0.34 0.37 0.37 0.21 0.13 0.09 0.05 0.01 0.00 0.00 0.00 0.01 0.01 0.01 0.01 0.02 0.04 0.07 0.15 0.12 0.07 0.11 0.06 0.02 0.01 0.01 0.01 0.02 0.03
0.46 0.42 0.34 0.34 0.35 0.37 0.44 0.56 0.71 0.78 0.82 0.81 0.79 0.72 0.72 0.65 0.38 0.20 0.23 0.20 0.11 0.05 0.01 0.00 0.00 0.00 0.00 0.00 0.01 0.01 0.02 0.05 0.11 0.09 0.07 0.09 0.06 0.02 0.00 0.00 0.00 0.00 0.01
0.46 0.52 0.45 0.33 0.32 0.32 0.38 0.53 0.69 0.81 0.90 0.87 0.68 0.60 0.67 0.67 0.45 0.27 0.30 0.29 0.20 0.11 0.04 0.01 0.00 0.00 0.00 0.00 0.00 0.00 0.01 0.03 0.07 0.06 0.06 0.06 0.05 0.03 0.01 0.01 0.01 0.00 0.00
0.45 0.52 0.55 0.46 0.38 0.36 0.40 0.47 0.53 0.80 0.94 1.02 0.96 0.67 0.73 0.66 0.51 0.37 0.28 0.30 0.25 0.19 0.10 0.03 0.01 0.01 0.01 0.01 0.01 0.01 0.01 0.02 0.02 0.02 0.04 0.05 0.05 0.06 0.04 0.04 0.04 0.02 0.01
0.40 0.46 0.51 0.54 0.53 0.49 0.48 0.50 0.48 0.53 0.64 0.73 0.64 0.52 0.63 0.68 0.55 0.46 0.34 0.31 0.33 0.30 0.25 0.14 0.06 0.04 0.03 0.02 0.03 0.02 0.01 0.01 0.01 0.01 0.03 0.04 0.05 0.09 0.09 0.11 0.11 0.07 0.06
0.39 0.42 0.46 0.53 0.60 0.62 0.62 0.70 0.62 0.58 0.63 0.61 0.55 0.54 0.56 0.60 0.59 0.61 0.52 0.40 0.34 0.39 0.40 0.29 0.19 0.13 0.06 0.03 0.02 0.02 0.02 0.01 0.00 0.01 0.01 0.02 0.04 0.11 0.17 0.22 0.23 0.20 0.15
0.37 0.37 0.39 0.43 0.48 0.53 0.60 0.67 0.72 0.72 0.74 0.70 0.71 0.64 0.58 0.66 0.74 0.78 0.72 0.56 0.45 0.50 0.51 0.43 0.32 0.23 0.11 0.05 0.02 0.01 0.01 0.01 0.01 0.00 0.00 0.00 0.01 0.05 0.12 0.19 0.30 0.36 0.32
0.35 0.32 0.31 0.32 0.32 0.35 0.42 0.53 0.65 0.71 0.78 0.83 0.83 0.79 0.76 0.78 0.78 0.84 0.89 0.84 0.76 0.72 0.67 0.57 0.40 0.28 0.17 0.09 0.04 0.01 0.00 0.00 0.01 0.01 0.00 0.00 0.00 0.00 0.01 0.04 0.11 0.14 0.22
0.29 0.30 0.30 0.31 0.30 0.26 0.30 0.43 0.53 0.58 0.65 0.80 0.86 0.91 1.17 1.25 1.05 0.95 0.97 0.92 0.88 0.87 0.81 0.78 0.67 0.45 0.28 0.17 0.09 0.05 0.02 0.01 0.01 0.01 0.01 0.01 0.01 0.01 0.00 0.00 0.02 0.02 0.08
0.15 0.14 0.18 0.24 0.30 0.28 0.24 0.30 0.41 0.49 0.61 0.72 0.88 0.96 1.18 1.26 1.17 1.17 1.14 1.07 0.98 0.92 0.91 0.97 0.99 0.74 0.50 0.30 0.27 0.22 0.13 0.06 0.04 0.02 0.02 0.01 0.02 0.01 0.01 0.01 0.02 0.03 0.03
0.05 0.07 0.10 0.15 0.23 0.31 0.33 0.38 0.51 0.68 0.79 0.86 0.99 1.05 1.18 1.16 1.13 1.07 1.18 1.25 1.16 1.15 1.18 1.23 1.23 1.11 0.79 0.48 0.56 0.68 0.48 0.33 0.16 0.07 0.04 0.03 0.02 0.01 0.01 0.01 0.02 0.02 0.01
0.03 0.05 0.11 0.19 0.32 0.49 0.64 0.84 1.09 1.36 1.47 1.36 1.21 1.27 1.41 1.47 1.40 1.31 1.36 1.46 1.34 1.32 1.31 1.30 1.25 1.36 1.26 0.92 0.76 0.91 0.73 0.60 0.53 0.23 0.11 0.09 0.08 0.05 0.03 0.02 0.02 0.03 0.02
0.11 0.17 0.28 0.40 0.57 0.73 0.93 1.15 1.39 1.62 1.78 1.80 1.82 1.85 1.81 1.76 1.63 1.51 1.48 1.49 1.47 1.48 1.37 1.26 1.29 1.46 1.66 1.49 1.21 0.96 0.75 0.60 0.60 0.50 0.31 0.20 0.16 0.11 0.07 0.05 0.04 0.03 0.03
0.28 0.41 0.53 0.76 0.92 1.06 1.12 1.22 1.43 1.54 1.61 1.72 1.87 1.91 1.88 1.77 1.65 1.52 1.45 1.44 1.46 1.51 1.47 1.47 1.54 1.67 1.79 1.86 1.65 1.28 0.99 0.80 0.55 0.51 0.51 0.42 0.31 0.19 0.13 0.09 0.07 0.05 0.04
0.57 0.81 0.96 1.06 1.16 1.15 1.13 1.15 1.29 1.43 1.51 1.59 1.72 1.77 1.70 1.54 1.47 1.45 1.43 1.36 1.28 1.32 1.40 1.53 1.71 1.74 1.78 1.88 1.78 1.41 1.13 0.95 0.82 0.72 0.60 0.57 0.56 0.37 0.25 0.19 0.13 0.08 0.08